Weather History for Baton Rouge, LA

Change the Weather History Date:

Sunday, January 12, 2014

  Actual Average Record
Temperature  
Mean Temperature 52 °F 52 °F  
Max Temperature 69 °F 62 °F 80 °F (1960)
Min Temperature 34 °F 41 °F 11 °F (1962)
Degree Days  
Heating Degree Days 13 14  
Month to date heating degree days 235 168  
Since 1 July heating degree days 959 784  
Cooling Degree Days 0 0  
Month to date cooling degree days 0 3  
Year to date cooling degree days 0 3  
Growing Degree Days 2 (Base 50)    
Moisture  
Dew Point 34 °F    
Average Humidity 58    
Maximum Humidity 92    
Minimum Humidity 23    
Precipitation  
Precipitation 0.00 in 0.18 in 4.41 in (1998)
Month to date precipitation 1.09 2.14  
Year to date precipitation 1.09 2.14  
Snow  
Snow 0.00 in - - ()
Month to date snowfall 0.0  
Since 1 July snowfall 0.0  
Snow Depth 0.00 in    
Sea Level Pressure  
Sea Level Pressure 30.13 in    
Wind  
Wind Speed 6 mph (SSE)    
Max Wind Speed 17 mph    
Max Gust Speed 21 mph    
Visibility 10 miles    
Events      
T = Trace of Precipitation, MM = Missing Value Source: NWS Daily Summary

Daily Weather History Graph

Daily Weather History Graph

Search for Another Location

Airport:

Trip Planner

Search our weather history database for the weather conditions in past years. The results will help you decide how hot, cold, wet, or windy it might be!

Date:

Astronomy

Jan. 12, 2014 Rise Set
Actual Time 7:02 AM CST 5:23 PM CST
Civil Twilight 6:36 AM CST 5:49 PM CST
Nautical Twilight 6:06 AM CST 6:19 PM CST
Astronomical Twilight 5:37 AM CST 6:48 PM CST
Moon 2:50 PM CST (1/12) 4:03 AM CST (1/12)
Length of Visible Light 11h 13m
Length of Day
10h 20m
Waxing Gibbous, 90% of the Moon is Illuminated
Jan 12
Waxing Gibbous
Jan 15
Full
Jan 23
Last Quarter
Jan 30
New
Feb 6
First Quarter

Hourly Weather History & Observations

Time (CST) Temp. Windchill Dew Point Humidity Pressure Visibility Wind Dir Wind Speed Gust Speed Precip Events Conditions
12:53 AM 39.9 °F - 36.0 °F 86% 30.12 in 10.0 mi Calm Calm - N/A   Clear
1:53 AM 39.0 °F - 35.1 °F 86% 30.13 in 10.0 mi Calm Calm - N/A   Clear
2:53 AM 37.9 °F - 35.1 °F 89% 30.13 in 10.0 mi Calm Calm - N/A   Clear
3:53 AM 37.0 °F - 35.1 °F 93% 30.13 in 10.0 mi Calm Calm - N/A   Clear
4:53 AM 36.0 °F 33.3 °F 34.0 °F 93% 30.14 in 10.0 mi NE 3.5 mph - N/A   Clear
5:53 AM 36.0 °F - 33.1 °F 89% 30.14 in 10.0 mi Calm Calm - N/A   Clear
6:53 AM 35.1 °F - 33.1 °F 92% 30.16 in 10.0 mi Calm Calm - N/A   Clear
7:53 AM 37.9 °F - 35.1 °F 89% 30.19 in 10.0 mi Calm Calm - N/A   Clear
8:53 AM 50.0 °F - 42.1 °F 74% 30.21 in 10.0 mi Calm Calm - N/A   Clear
9:53 AM 61.0 °F - 36.0 °F 39% 30.21 in 10.0 mi SSE 6.9 mph - N/A   Clear
10:53 AM 64.0 °F - 32.0 °F 30% 30.19 in 10.0 mi SSE 9.2 mph - N/A   Clear
11:53 AM 66.9 °F - 32.0 °F 27% 30.15 in 10.0 mi SE 9.2 mph - N/A   Clear
12:53 PM 68.0 °F - 30.9 °F 25% 30.12 in 10.0 mi SSW 11.5 mph - N/A   Clear
1:53 PM 69.1 °F - 32.0 °F 25% 30.10 in 10.0 mi SSW 9.2 mph - N/A   Clear
2:53 PM 69.1 °F - 30.9 °F 24% 30.10 in 10.0 mi South 13.8 mph - N/A   Clear
3:53 PM 68.0 °F - 32.0 °F 26% 30.08 in 10.0 mi South 10.4 mph - N/A   Clear
4:53 PM 64.9 °F - 33.1 °F 31% 30.09 in 10.0 mi South 10.4 mph - N/A   Clear
5:53 PM 59.0 °F - 33.1 °F 38% 30.10 in 10.0 mi South 8.1 mph - N/A   Clear
6:53 PM 57.9 °F - 35.1 °F 42% 30.12 in 10.0 mi South 10.4 mph - N/A   Clear
7:53 PM 57.0 °F - 34.0 °F 42% 30.12 in 10.0 mi South 8.1 mph - N/A   Clear
8:53 PM 55.9 °F - 34.0 °F 44% 30.12 in 10.0 mi SSE 5.8 mph - N/A   Clear
9:53 PM 55.0 °F - 34.0 °F 45% 30.08 in 10.0 mi ESE 10.4 mph - N/A   Clear
10:53 PM 57.0 °F - 36.0 °F 45% 30.06 in 10.0 mi ESE 6.9 mph - N/A   Partly Cloudy
11:53 PM 55.9 °F - 39.9 °F 55% 30.06 in 10.0 mi SE 8.1 mph - N/A   Clear